Погода Баркана 2 недели

Маскат, Оман

15 - 28 июля
  • 15июля
    Сегодня
    +33°
    +43°
    Ясно и безоблачно
    ВремяПогодаТемператураВлажностьДавлениеВетер, м/сВероятность осадков
    01:00Ясно и безоблачно+37°C75 %744 мм1.8 м/с0 %
    04:00Ясно и безоблачно+35°C86 %745 мм6.1 м/с0 %
    07:00Ясно и безоблачно+36°C77 %747 мм1.2 м/с0 %
    10:00Ясно и безоблачно+41°C69 %747 мм2.7 м/с0 %
    13:00Ясно и безоблачно+42°C73 %746 мм6.8 м/с0 %
    16:00Небольшая облачность+42°C74 %745 мм6.3 м/с0 %
    19:00Ясно и безоблачно+39°C77 %746 мм4.9 м/с0 %
    22:00Небольшая облачность+36°C82 %747 мм0.3 м/с0 %
  • 16июля
    Вторник
    +32°
    +41°
    Ясно и безоблачно
    ВремяПогодаТемператураВлажностьДавлениеВетер, м/сВероятность осадков
    01:00Практически безоблачно+35°C83 %746 мм4.4 м/с0 %
    04:00Ясно и безоблачно+35°C88 %747 мм5.6 м/с0 %
    07:00Ясно и безоблачно+34°C87 %748 мм2.3 м/с0 %
    10:00Ясно и безоблачно+38°C79 %749 мм4.0 м/с0 %
    13:00Ясно и безоблачно+41°C75 %748 мм5.7 м/с0 %
    16:00Ясно и безоблачно+40°C73 %747 мм5.7 м/с0 %
    19:00Ясно и безоблачно+37°C80 %747 мм3.8 м/с0 %
    22:00Ясно и безоблачно+34°C83 %748 мм0.5 м/с0 %
  • 17июля
    Среда
    +35°
    +44°
    Облачно с прояснениями
    ВремяПогодаТемператураВлажностьДавлениеВетер, м/сВероятность осадков
    01:00Практически безоблачно+33°C80 %747 мм1.4 м/с0 %
    04:00Ясно и безоблачно+33°C87 %747 мм1.6 м/с0 %
    07:00Ясно и безоблачно+33°C85 %748 мм0.4 м/с0 %
    10:00Небольшая облачность+39°C71 %749 мм1.1 м/с0 %
    13:00Облачно с прояснениями+43°C65 %747 мм4.8 м/с0 %
    16:00Облачно с прояснениями+42°C72 %746 мм5.0 м/с0 %
    19:00Облачно с прояснениями+41°C68 %746 мм3.8 м/с0 %
    22:00Облачно с прояснениями+37°C58 %746 мм0.9 м/с0 %
  • 18июля
    Четверг
    +34°
    +43°
    Небольшая облачность
    ВремяПогодаТемператураВлажностьДавлениеВетер, м/сВероятность осадков
    01:00Облачно с прояснениями+36°C60 %745 мм1.2 м/с0 %
    04:00Облачно с прояснениями+37°C69 %745 мм2.9 м/с0 %
    07:00Ясно и безоблачно+37°C68 %746 мм1.2 м/с0 %
    10:00Облачно с прояснениями+42°C71 %746 мм2.5 м/с0 %
    13:00Небольшая облачность+43°C67 %745 мм5.6 м/с0 %
    16:00Практически безоблачно+42°C70 %744 мм6.5 м/с0 %
    19:00Облачно с прояснениями+39°C72 %745 мм3.9 м/с0 %
    22:00Облачно с прояснениями+37°C74 %745 мм1.2 м/с0 %
  • 19июля
    Пятница
    +34°
    +42°
    Небольшая облачность
    ВремяПогодаТемператураВлажностьДавлениеВетер, м/сВероятность осадков
    01:00Облачно с прояснениями+35°C67 %743 мм2.5 м/с0 %
    04:00Небольшая облачность+35°C89 %744 мм4.1 м/с0 %
    07:00Небольшая облачность+35°C84 %745 мм1.2 м/с0 %
    10:00Небольшая облачность+40°C71 %745 мм0.9 м/с0 %
    13:00Небольшая облачность+41°C74 %744 мм6.0 м/с0 %
    16:00Практически безоблачно+41°C76 %743 мм5.8 м/с0 %
    19:00Ясно и безоблачно+39°C76 %743 мм3.3 м/с0 %
    22:00Облачно с прояснениями+36°C79 %744 мм1.4 м/с0 %
Мы используем cookies
Соглашаюсь